Regional Weather Roundup
Issued by NWS

Home | Current Version | Previous Version | Graphics & Text | Print | Product List | Glossary On
Versions: 1 2 3 4 5 6 7 8 9 10 11 12 13 14 15 16 17 18 19 20 21 22 23 24 25 26 27 28 29 30 31 32 33 34 35 36 37 38 39 40 41 42 43 44 45 46 47 48 49 50
704
ASUS45 KCYS 240010
RWRWY

WYOMING REGIONAL WEATHER ROUNDUP
NATIONAL WEATHER SERVICE CHEYENNE WY
600 PM MDT SUN JUL 23 2017

NOTE:  "FAIR" INDICATES FEW OR NO CLOUDS BELOW 12,000 FEET
WITH NO SIGNIFICANT WEATHER AND/OR OBSTRUCTIONS TO VISIBILITY.

WYZ001-240100-
YELLOWSTONE NATIONAL PARK

CITY           SKY/WX    TMP DP  RH WIND       PRES   REMARKS
LK YELLOWSTONE   N/A     74  29  19 VRB3      30.28F
6HR MIN TEMP:  63; 6HR MAX TEMP:  76;

W YELLOWSTONE  NOT AVBL

$$
WYZ002>013-054>058-071-098>099-240100-
NORTHERN WYOMING

CITY           SKY/WX    TMP DP  RH WIND       PRES   REMARKS
JACKSON        SUNNY     82  37  20 SW10      30.17F
CODY           FAIR      89  34  14 VRB3      30.03F
GREYBULL       FAIR      94  24   8 W6        29.91F
6HR MIN TEMP:  87; 6HR MAX TEMP:  96;

WORLAND        FAIR      94  38  14 NW6       29.91F
6HR MIN TEMP:  85; 6HR MAX TEMP:  97;

SHERIDAN       FAIR      96  39  13 NE8       29.94F HX  91
6HR MIN TEMP:  86; 6HR MAX TEMP:  97;

BUFFALO        FAIR      92  38  15 E7        30.01F
6HR MIN TEMP:  86; 6HR MAX TEMP:  95;

GILLETTE       FAIR      93  40  15 SE10      29.97F
6HR MIN TEMP:  88; 6HR MAX TEMP:  96;

HULETT         FAIR      90  45  20 E13       30.01F
NEWCASTLE      FAIR      91  34  13 SE5       30.02S

$$
WYZ014>020-022>026-101>103-240100-
CENTRAL WYOMING

CITY           SKY/WX    TMP DP  RH WIND       PRES   REMARKS
BIG PINEY      FAIR      83  35  18 W8        30.22F
6HR MIN TEMP:  77; 6HR MAX TEMP:  85; 6HR PCP: TRACE;

PINEDALE       FAIR      81  32  17 N13       30.23F
DUBOIS         FAIR      81  25  12 NW16G24   30.21S
LANDER         FAIR      86  39  19 CALM      30.06F
6HR MIN TEMP:  82; 6HR MAX TEMP:  92;

RIVERTON       FAIR      90  28  11 VRB3      30.04F
6HR MIN TEMP:  80; 6HR MAX TEMP:  93;

CASPER         FAIR      93  35  13 SE10      30.02F
6HR MIN TEMP:  86; 6HR MAX TEMP:  96;

DOUGLAS        FAIR      94  36  13 SE18      30.03F
6HR MIN TEMP:  87; 6HR MAX TEMP:  95;


$$
WYZ021-027>030-104>119-240100-
SOUTHERN WYOMING

CITY           SKY/WX    TMP DP  RH WIND       PRES   REMARKS
EVANSTON       FAIR      81  32  17 N7        30.24R
6HR MIN TEMP:  81; 6HR MAX TEMP:  87;

KEMMERER         N/A     82  27  13 S3        30.24F
FORT BRIDGER   FAIR      81  39  23 S10       30.25S
ROCK SPRINGS   FAIR      86  27  11 SW22      30.18S
6HR MIN TEMP:  83; 6HR MAX TEMP:  91;

RAWLINS        FAIR      87  19   8 SW6       30.16F
6HR MIN TEMP:  84; 6HR MAX TEMP:  92;

SARATOGA       FAIR      86  25  10 N5        30.19F
LARAMIE        FAIR      80  41  24 S12       30.23F
6HR MIN TEMP:  69; 6HR MAX TEMP:  85; 6HR PCP:  0.11;

CHEYENNE       FAIR      84  41  21 S14       30.17F
6HR MIN TEMP:  81; 6HR MAX TEMP:  90;

TORRINGTON     FAIR      93  43  17 E15       29.99F
6HR MIN TEMP:  86; 6HR MAX TEMP:  95;

PINE BLUFFS    FAIR      90  41  18 S15       30.10F

$$




USA.gov is the U.S. government's official web portal to all federal, state and local government web resources and services.